Hourly Data Report for December 28, 2005

TORONTO CITY
ONTARIO

43°40'00.000" N
79°24'00.000" W
112.50 m
6158355
71508
XTO

Download Data

Hourly Data (December 2005)
Hourly Data Report for December 28, 2005
TIME
LST
Temp Definition
°C
Dew Point Definition
°C
Rel Hum Definition
%
Precip. Amount Definition
mm

Wind Dir Definition
10's deg

Wind Spd Definition
km/h
Visibility Definition
km
Stn Press Definition
kPa
Hmdx Definition


Wind Chill Definition


Weather Definition


00:00 1.9 -0.9 82   LegendMM LegendMM   99.49     LegendNANA
01:00 2.1 -0.6 82   LegendMM LegendMM   99.48     LegendNANA
02:00 2.1 -0.6 82   LegendMM LegendMM   99.42     LegendNANA
03:00 2.3 -0.5 82   LegendMM LegendMM   99.41     LegendNANA
04:00 2.3 -0.7 81   LegendMM LegendMM   99.34     LegendNANA
05:00 2.5 -0.3 82   LegendMM LegendMM   99.23     LegendNANA
06:00 2.6 -0.1 82   LegendMM LegendMM   99.24     LegendNANA
07:00 2.6 0.3 85   LegendMM LegendMM   99.20     LegendNANA
08:00 2.8 0.6 85   LegendMM LegendMM   99.16     LegendNANA
09:00 3.1 0.7 84   LegendMM LegendMM   99.18     LegendNANA
10:00 3.3 1.2 86   LegendMM LegendMM   99.12     LegendNANA
11:00 3.3 1.9 91   LegendMM LegendMM   99.03     LegendNANA
12:00 2.7 1.7 93   LegendMM LegendMM   98.87     LegendNANA
13:00 2.7 1.7 93   LegendMM LegendMM   98.73     LegendNANA
14:00 2.9 1.9 93   LegendMM LegendMM   98.65     LegendNANA
15:00 2.8 1.6 92   LegendMM LegendMM   98.64     LegendNANA
16:00 2.8 1.4 90   LegendMM LegendMM   98.61     LegendNANA
17:00 2.5 1.4 92   LegendMM LegendMM   98.55     LegendNANA
18:00 2.4 1.5 94   LegendMM LegendMM   98.54     LegendNANA
19:00 2.3 1.7 96   LegendMM LegendMM   98.48     LegendNANA
20:00 2.2 1.7 96   LegendMM LegendMM   98.49     LegendNANA
21:00 2.2 1.7 96   LegendMM LegendMM   98.44     LegendNANA
22:00 2.2 1.7 96   LegendMM LegendMM   98.34     LegendNANA
23:00 2.2 1.8 97   LegendMM LegendMM   98.33     LegendNANA

Notes on Data Quality.

Legend

  • E = Estimated
  • M = Missing
  • NA = Not Available*
  • [empty] = Indicates an unobserved value
Date modified: